Madison, MN

7:03 AM CST on December 09, 2019 (GMT -0600)
Madison-Lac Qui Parle County

Weather History for KDXX - October, 2019

Change the Weather History Date:

Tuesday, October 29, 2019

  Actual Average (KAQP) Record (KAQP)
Temperature  
Mean Temperature 30 °F -  
Max Temperature 37 °F 47 °F 71 °F (2004)
Min Temperature 21 °F 30 °F 21 °F (2003)
Degree Days  
Heating Degree Days 35    
Moisture  
Dew Point 17 °F    
Average Humidity 62    
Maximum Humidity 86    
Minimum Humidity 30    
Precipitation  
Precipitation 0.00 in - - ()
Sea Level Pressure  
Sea Level Pressure 30.25 in    
Wind  
Wind Speed 8 mph (WNW)    
Max Wind Speed 15 mph    
Max Gust Speed 22 mph    
Visibility 10 miles    
Events      
Averages and records for this station are not official NWS values.
T = Trace of Precipitation, MM = Missing Value Source: NWS Daily Summary

Daily Weather History Graph

Daily Weather History Graph

Search for Another Location

Airport or City:

Astronomy

Oct. 29, 2019 Rise Set
Actual Time 7:58 AM CDT 6:17 PM CDT
Civil Twilight 7:28 AM CDT 6:47 PM CDT
Nautical Twilight 6:53 AM CDT 7:22 PM CDT
Astronomical Twilight 6:19 AM CDT 7:56 PM CDT
Moon 9:36 AM CDT (10/29) 7:38 PM CDT (10/29)
Length of Visible Light 11h 19m
Length of Day
10h 18m
Waxing Crescent, 3% of the Moon is Illuminated
Oct 29
Waxing Crescent
Nov 4
First Quarter
Nov 12
Full
Nov 19
Last Quarter
Nov 26
New

Hourly Weather History & Observations

Time (CDT) Temp. Windchill Dew Point Humidity Pressure Visibility Wind Dir Wind Speed Gust Speed Precip Events Conditions
12:15 AM 28.4 °F 22.2 °F 21.2 °F 74% 30.11 in 10.0 mi West 5.8 mph - N/A   Clear
12:16 AM 28.4 °F 22.2 °F 21.2 °F 74% 30.11 in 10.0 mi West 5.8 mph - N/A   Clear
12:35 AM 28.4 °F 23.3 °F 21.2 °F 74% 30.11 in 10.0 mi WSW 4.6 mph - N/A   Clear
12:39 AM 28.4 °F 23.3 °F 21.2 °F 74% 30.11 in 10.0 mi WSW 4.6 mph - N/A   Clear
12:57 AM 28.4 °F 24.6 °F 21.2 °F 74% 30.11 in 10.0 mi WSW 3.5 mph - N/A   Clear
1:16 AM 28.4 °F 23.3 °F 21.2 °F 74% 30.11 in 10.0 mi WSW 4.6 mph - N/A   Clear
1:35 AM 28.4 °F 23.3 °F 23.0 °F 80% 30.11 in 10.0 mi WSW 4.6 mph - N/A   Scattered Clouds
1:36 AM 28.4 °F 23.3 °F 23.0 °F 80% 30.11 in 10.0 mi WSW 4.6 mph - N/A   Scattered Clouds
1:55 AM 28.4 °F 23.3 °F 24.8 °F 86% 30.11 in 10.0 mi West 4.6 mph - N/A   Mostly Cloudy
1:56 AM 28.4 °F 23.3 °F 24.8 °F 86% 30.11 in 10.0 mi West 4.6 mph - N/A   Mostly Cloudy
2:18 AM 30.2 °F 22.6 °F 24.8 °F 80% 30.12 in 10.0 mi WNW 8.1 mph - N/A   Mostly Cloudy
2:36 AM 32.0 °F 23.6 °F 24.8 °F 75% 30.13 in 10.0 mi NW 10.4 mph 16.1 mph N/A   Scattered Clouds
2:56 AM 32.0 °F 23.6 °F 24.8 °F 75% 30.14 in 10.0 mi North 10.4 mph - N/A   Clear
3:15 AM 30.2 °F 21.3 °F 21.2 °F 69% 30.13 in 10.0 mi North 10.4 mph - N/A   Clear
3:16 AM 30.2 °F 21.3 °F 21.2 °F 69% 30.13 in 10.0 mi North 10.4 mph - N/A   Clear
3:35 AM 30.2 °F 21.3 °F 19.4 °F 64% 30.15 in 10.0 mi NNW 10.4 mph - N/A   Clear
3:40 AM 30.2 °F 21.9 °F 19.4 °F 64% 30.15 in 10.0 mi NNW 9.2 mph - N/A   Clear
3:57 AM 28.4 °F 20.4 °F 19.4 °F 69% 30.16 in 10.0 mi NNW 8.1 mph - N/A   Clear
4:15 AM 28.4 °F 20.4 °F 19.4 °F 69% 30.16 in 10.0 mi NNW 8.1 mph - N/A   Clear
4:35 AM 28.4 °F 22.2 °F 19.4 °F 69% 30.17 in 10.0 mi NNW 5.8 mph - N/A   Clear
4:55 AM 28.4 °F 21.2 °F 19.4 °F 69% 30.17 in 10.0 mi NNW 6.9 mph - N/A   Clear
4:56 AM 28.4 °F 21.2 °F 19.4 °F 69% 30.17 in 10.0 mi NNW 6.9 mph - N/A   Clear
5:18 AM 28.4 °F 22.2 °F 19.4 °F 69% 30.18 in 10.0 mi NW 5.8 mph - N/A   Scattered Clouds
5:37 AM 26.6 °F 21.2 °F 19.4 °F 74% 30.19 in 10.0 mi NNW 4.6 mph - N/A   Mostly Cloudy
5:56 AM 26.6 °F 21.2 °F 19.4 °F 74% 30.21 in 10.0 mi West 4.6 mph - N/A   Scattered Clouds
6:15 AM 26.6 °F 21.2 °F 21.2 °F 80% 30.21 in 10.0 mi West 4.6 mph - N/A   Overcast
6:16 AM 26.6 °F 21.2 °F 21.2 °F 80% 30.21 in 10.0 mi West 4.6 mph - N/A   Overcast
6:35 AM 28.4 °F 23.3 °F 21.2 °F 74% 30.22 in 10.0 mi West 4.6 mph - N/A   Overcast
6:57 AM 28.4 °F 23.3 °F 21.2 °F 74% 30.21 in 10.0 mi West 4.6 mph - N/A   Overcast
7:16 AM 28.4 °F 22.2 °F 21.2 °F 74% 30.22 in 10.0 mi WNW 5.8 mph - N/A   Overcast
7:35 AM 28.4 °F 22.2 °F 21.2 °F 74% 30.22 in 10.0 mi WNW 5.8 mph - N/A   Mostly Cloudy
7:36 AM 28.4 °F 22.2 °F 21.2 °F 74% 30.22 in 10.0 mi WNW 5.8 mph - N/A   Mostly Cloudy
7:55 AM 28.4 °F 20.4 °F 19.4 °F 69% 30.23 in 10.0 mi NW 8.1 mph - N/A   Overcast
7:56 AM 28.4 °F 19.7 °F 19.4 °F 69% 30.23 in 10.0 mi WNW 9.2 mph - N/A   Overcast
8:18 AM 28.4 °F 20.4 °F 19.4 °F 69% 30.24 in 10.0 mi NW 8.1 mph - N/A   Mostly Cloudy
8:36 AM 26.6 °F 18.2 °F 19.4 °F 74% 30.25 in 10.0 mi NW 8.1 mph - N/A   Scattered Clouds
8:55 AM 28.4 °F 22.2 °F 17.6 °F 64% 30.26 in 10.0 mi NW 5.8 mph - N/A   Clear
9:15 AM 30.2 °F 22.6 °F 19.4 °F 64% 30.27 in 10.0 mi NW 8.1 mph - N/A   Mostly Cloudy
9:16 AM 30.2 °F 23.4 °F 19.4 °F 64% 30.27 in 10.0 mi NW 6.9 mph - N/A   Mostly Cloudy
9:35 AM 30.2 °F 20.8 °F 17.6 °F 60% 30.28 in 10.0 mi WNW 11.5 mph - N/A   Overcast
9:39 AM 30.2 °F 20.8 °F 17.6 °F 60% 30.28 in 10.0 mi WNW 11.5 mph - N/A   Overcast
9:58 AM 30.2 °F 21.3 °F 17.6 °F 60% 30.28 in 10.0 mi NW 10.4 mph - N/A   Mostly Cloudy
10:15 AM 30.2 °F 19.3 °F 17.6 °F 60% 30.29 in 10.0 mi NW 15.0 mph 18.4 mph N/A   Mostly Cloudy
10:35 AM 30.2 °F 19.3 °F 17.6 °F 60% 30.30 in 10.0 mi WNW 15.0 mph 19.6 mph N/A   Overcast
10:36 AM 30.2 °F 19.8 °F 17.6 °F 60% 30.30 in 10.0 mi WNW 13.8 mph 19.6 mph N/A   Overcast
10:55 AM 32.0 °F 22.5 °F 17.6 °F 55% 30.29 in 10.0 mi WNW 12.7 mph 17.3 mph N/A   Scattered Clouds
11:18 AM 32.0 °F 22.5 °F 17.6 °F 55% 30.31 in 10.0 mi WNW 12.7 mph - N/A   Clear
11:37 AM 33.8 °F 24.3 °F 17.6 °F 52% 30.30 in 10.0 mi WNW 13.8 mph - N/A   Clear
11:56 AM 33.8 °F 24.8 °F 15.8 °F 48% 30.31 in 10.0 mi WNW 12.7 mph 17.3 mph N/A   Clear
12:15 PM 33.8 °F 25.3 °F 17.6 °F 52% 30.30 in 10.0 mi NW 11.5 mph - N/A   Clear
12:35 PM 33.8 °F 23.9 °F 17.6 °F 52% 30.31 in 10.0 mi WNW 15.0 mph 20.7 mph N/A   Clear
12:39 PM 33.8 °F 23.9 °F 15.8 °F 48% 30.31 in 10.0 mi WNW 15.0 mph 20.7 mph N/A   Clear
12:57 PM 35.6 °F 26.6 °F 17.6 °F 48% 30.31 in 10.0 mi WNW 13.8 mph 18.4 mph N/A   Clear
1:16 PM 35.6 °F 26.2 °F 15.8 °F 44% 30.30 in 10.0 mi WNW 15.0 mph 18.4 mph N/A   Clear
1:35 PM 35.6 °F 26.6 °F 15.8 °F 44% 30.29 in 10.0 mi WNW 13.8 mph 18.4 mph N/A   Clear
1:36 PM 35.6 °F 27.1 °F 15.8 °F 44% 30.29 in 10.0 mi NW 12.7 mph 18.4 mph N/A   Clear
1:55 PM 35.6 °F 27.1 °F 15.8 °F 44% 30.28 in 10.0 mi WNW 12.7 mph - N/A   Clear
2:36 PM 35.6 °F 26.6 °F 14.0 °F 41% 30.28 in 10.0 mi NW 13.8 mph 21.9 mph N/A   Clear
2:56 PM 35.6 °F 26.2 °F 12.2 °F 38% 30.27 in 10.0 mi NW 15.0 mph - N/A   Clear
3:15 PM 37.4 °F 28.9 °F 12.2 °F 36% 30.27 in 10.0 mi West 13.8 mph 17.3 mph N/A   Clear
3:16 PM 37.4 °F 28.9 °F 10.4 °F 33% 30.27 in 10.0 mi West 13.8 mph 17.3 mph N/A   Clear
3:35 PM 37.4 °F 28.5 °F 10.4 °F 33% 30.28 in 10.0 mi West 15.0 mph 20.7 mph N/A   Clear
3:39 PM 37.4 °F 28.9 °F 8.6 °F 30% 30.28 in 10.0 mi WNW 13.8 mph 18.4 mph N/A   Clear
3:58 PM 35.6 °F 27.5 °F 8.6 °F 33% 30.28 in 10.0 mi WNW 11.5 mph 18.4 mph N/A   Clear
4:15 PM 35.6 °F 28.0 °F 10.4 °F 35% 30.28 in 10.0 mi West 10.4 mph 13.8 mph N/A   Clear
4:35 PM 35.6 °F 27.5 °F 10.4 °F 35% 30.29 in 10.0 mi West 11.5 mph 17.3 mph N/A   Clear
4:36 PM 35.6 °F 26.6 °F 10.4 °F 35% 30.29 in 10.0 mi WNW 13.8 mph 17.3 mph N/A   Clear
4:55 PM 35.6 °F 26.2 °F 10.4 °F 35% 30.29 in 10.0 mi West 15.0 mph - N/A   Clear
5:18 PM 35.6 °F 26.6 °F 10.4 °F 35% 30.30 in 10.0 mi West 13.8 mph - N/A   Clear
5:37 PM 33.8 °F 27.0 °F 12.2 °F 41% 30.30 in 10.0 mi WNW 8.1 mph - N/A   Clear
5:56 PM 33.8 °F 26.4 °F 12.2 °F 41% 30.30 in 10.0 mi West 9.2 mph - N/A   Clear
6:15 PM 32.0 °F 25.6 °F 14.0 °F 48% 30.30 in 10.0 mi West 6.9 mph - N/A   Clear
6:16 PM 32.0 °F 25.6 °F 14.0 °F 48% 30.30 in 10.0 mi West 6.9 mph - N/A   Clear
6:35 PM 30.2 °F 22.6 °F 14.0 °F 51% 30.31 in 10.0 mi West 8.1 mph - N/A   Clear
6:57 PM 28.4 °F 22.2 °F 15.8 °F 59% 30.31 in 10.0 mi West 5.8 mph - N/A   Clear
7:16 PM 28.4 °F 22.2 °F 15.8 °F 59% 30.32 in 10.0 mi West 5.8 mph - N/A   Clear
7:35 PM 28.4 °F 22.2 °F 15.8 °F 59% 30.32 in 10.0 mi West 5.8 mph - N/A   Clear
7:55 PM 26.6 °F 20.0 °F 15.8 °F 64% 30.33 in 10.0 mi West 5.8 mph - N/A   Clear
7:56 PM 26.6 °F 21.2 °F 15.8 °F 64% 30.33 in 10.0 mi West 4.6 mph - N/A   Clear
8:19 PM 26.6 °F 21.2 °F 15.8 °F 64% 30.34 in 10.0 mi West 4.6 mph - N/A   Clear
8:36 PM 26.6 °F 20.0 °F 15.8 °F 64% 30.34 in 10.0 mi WSW 5.8 mph - N/A   Clear
8:56 PM 26.6 °F 20.0 °F 15.8 °F 64% 30.35 in 10.0 mi WSW 5.8 mph - N/A   Clear
9:15 PM 26.6 °F 19.1 °F 15.8 °F 64% 30.35 in 10.0 mi WSW 6.9 mph - N/A   Clear
9:35 PM 24.8 °F 16.9 °F 15.8 °F 69% 30.36 in 10.0 mi SW 6.9 mph - N/A   Clear
9:58 PM 24.8 °F 16.9 °F 15.8 °F 69% 30.37 in 10.0 mi West 6.9 mph - N/A   Clear
10:15 PM 24.8 °F 17.9 °F 15.8 °F 69% 30.37 in 10.0 mi West 5.8 mph - N/A   Clear
10:35 PM 23.0 °F 14.7 °F 15.8 °F 74% 30.38 in 10.0 mi West 6.9 mph - N/A   Clear
10:36 PM 23.0 °F 14.7 °F 15.8 °F 74% 30.38 in 10.0 mi West 6.9 mph - N/A   Clear
10:55 PM 23.0 °F 14.7 °F 15.8 °F 74% 30.38 in 10.0 mi West 6.9 mph - N/A   Clear
11:18 PM 23.0 °F 15.8 °F 15.8 °F 74% 30.37 in 10.0 mi West 5.8 mph - N/A   Clear
11:36 PM 23.0 °F 14.7 °F 15.8 °F 74% 30.37 in 10.0 mi West 6.9 mph - N/A   Clear
11:55 PM 23.0 °F 15.8 °F 15.8 °F 74% 30.37 in 10.0 mi West 5.8 mph - N/A   Clear
11:56 PM 21.2 °F 13.6 °F 15.8 °F 80% 30.37 in 10.0 mi West 5.8 mph - N/A   Clear